Regional Weather Roundup
Issued by NWS

Home | Current Version | Previous Version | Text Only | Print | Product List | Glossary Off
Versions: 1 2 3 4 5 6 7 8 9 10 11 12 13 14 15 16 17 18 19 20 21 22 23 24 25 26 27 28 29 30 31 32 33 34 35 36 37 38 39 40 41 42 43 44 45 46 47 48 49 50

343
ASUS43 KLSX 220557
RWRMO

WEATHER SUMMARY FOR MISSOURI
NATIONAL WEATHER SERVICE SPRINGFIELD MO
100 AM CDT TUE AUG 22 2017

NOTE: "FAIR" INDICATES FEW OR NO CLOUDS BELOW 12,000 FEET WITH NO
       SIGNIFICANT WEATHER AND/OR OBSTRUCTIONS TO VISIBILITY.
       CURRENT SKY AND/OR WEATHER CONDITIONS ARE NOT AVAILABLE FOR
       CHILLICOTHE AND FARMINGTON.

MOZ001>031-035>038-043-044-053-054-220700-
...NORTHERN AND WESTERN MISSOURI...

CITY           SKY/WX    TMP DP  RH WIND       PRES   REMARKS
KANSAS CTY INT TSTM      70  69  97 S3        29.97S
6HR MIN TEMP:  68; 6HR MAX TEMP:  78; 6HR PCP:  2.75;

KANSAS C DTWN  TSTM      72  71  97 VRB6      29.97F FOG
LEE`S SUMMIT   TSTM      70  70 100 MISG      30.00S FOG
6HR MIN TEMP:  69; 6HR MAX TEMP:  81; 6HR PCP:  3.14;

ST JOSEPH      HVY RAIN  70  70 100 N18       30.00R FOG
6HR MIN TEMP:  69; 6HR MAX TEMP:  77; 6HR PCP:  0.71;

CHILLICOTHE      N/A     71  71 100 CALM      30.03R
6HR MIN TEMP:  70; 6HR MAX TEMP:  73; 6HR PCP:  0.81;

KIRKSVILLE     LGT RAIN  68  68 100 S5        30.00S FOG

$$
MOZ066>068-077>081-088>096-101>105-220700-
...SOUTHWEST MISSOURI...

CITY           SKY/WX    TMP DP  RH WIND       PRES   REMARKS
SPRINGFIELD    CLEAR     77  74  90 S15       30.02F
6HR MIN TEMP:  77; 6HR MAX TEMP:  85;

JOPLIN         CLOUDY    82  75  79 S15       30.02F
6HR MIN TEMP:  82; 6HR MAX TEMP:  89;


$$
MOZ032>034-039>042-045>050-055>058-069>072-220700-
...CENTRAL MISSOURI...

CITY           SKY/WX    TMP DP  RH WIND       PRES   REMARKS
COLUMBIA       NOT AVBL
JEFFERSON CITY CLOUDY    81  75  82 S5        29.94F
6HR MIN TEMP:  76; 6HR MAX TEMP:  88;

ROLLA          CLOUDY    77  72  84 S10       30.01F
6HR MIN TEMP:  74; 6HR MAX TEMP:  85; 6HR PCP:  0.12;

SEDALIA        CLOUDY    73  71  93 VRB7      30.02R THUNDER
6HR MIN TEMP:  73; 6HR MAX TEMP:  81;

WARRENSBURG    TSTM      68  68 100 NW7       30.01S

$$
MOZ051-052-059>065-220700-
...EAST CENTRAL MISSOURI...

CITY           SKY/WX    TMP DP  RH WIND       PRES   REMARKS
ST LOUIS INTL  CLOUDY    83  73  72 S14       29.96F
6HR MIN TEMP:  81; 6HR MAX TEMP:  86; 6HR PCP: TRACE;


$$
MOZ072>076-082>087-097>100-106>115-220700-
...SOUTH CENTRAL AND SOUTHEAST MISSOURI...

CITY           SKY/WX    TMP DP  RH WIND       PRES   REMARKS
CAPE GIRARDEAU CLEAR     78  74  87 S8        30.03S
6HR MIN TEMP:  74; 6HR MAX TEMP:  86;

POPLAR BLUFF   CLEAR     77  76  96 SW3       30.04S
6HR MIN TEMP:  77; 6HR MAX TEMP:  87;

WEST PLAINS    CLEAR     78  72  81 SW10      30.08F
6HR MIN TEMP:  78; 6HR MAX TEMP:  86;


$$



USA.gov is the U.S. government's official web portal to all federal, state and local government web resources and services.